,,Stat1,,Stat2,,Stat3,,Stat4,,Wind1,,Wind1,
time,status,PR1M_SUM,status,RH1M_AVG,status,SR1M_AVG,status,TA1M_AVG,status,W1dAve1m,status,W1sAve1m,
1999-11-14, 00:01:00,VALID,0,VALID,97.6198,VALID,-0.0509425,VALID,19.4756,VALID,100,VALID,0,
1999-11-14, 00:02:00,VALID,0,VALID,97.6262,VALID,-0.0509425,VALID,19.4726,VALID,133,VALID,0,
1999-11-14, 00:03:00,VALID,0,VALID,97.6007,VALID,-0.0169808,VALID,19.4796,VALID,203,VALID,0.155664,
1999-11-14, 00:04:00,VALID,0,VALID,97.4596,VALID,-0.0169808,VALID,19.4532,VALID,276,VALID,0.832854,
1999-11-14, 00:05:00,VALID,0,VALID,97.5588,VALID,-0.0169808,VALID,19.4666,VALID,16,VALID,0.564503,
1999-11-14, 00:06:00,VALID,0,VALID,97.7826,VALID,-0.0169808,VALID,19.4691,VALID,103,VALID,1.09312,
1999-11-14, 00:07:00,VALID,0,VALID,97.8156,VALID,-0.0339617,VALID,19.4726,VALID,96,VALID,1.13379,
1999-11-14, 00:08:01,VALID,0,VALID,97.7686,VALID,-0.0509425,VALID,19.4691,VALID,114,VALID,0.723067,
1999-11-14, 00:09:00,VALID,0,VALID,97.761,VALID,-0.0849042,VALID,19.4826,VALID,223,VALID,0.263302,
1999-11-14, 00:10:00,VALID,0,VALID,97.6224,VALID,-0.0169808,VALID,19.4796,VALID,177,VALID,0.466694,
1999-11-14, 00:11:00,VALID,0,VALID,97.6516,VALID,-0.0509425,VALID,19.4855,VALID,189,VALID,0.695884,
1999-11-14, 00:12:00,VALID,0,VALID,97.5575,VALID,-0.0339617,VALID,19.4853,VALID,202,VALID,0.678886,
1999-11-14, 00:13:00,VALID,0,VALID,97.5969,VALID,-0.0169808,VALID,19.4821,VALID,207,VALID,0.499794,
1999-11-14, 00:14:00,VALID,0,VALID,97.6211,VALID,-0.0339617,VALID,19.4853,VALID,157,VALID,0.822516,
1999-11-14, 00:15:00,VALID,0,VALID,97.424,VALID,-0.0169808,VALID,19.4826,VALID,266,VALID,0.700169,
1999-11-14, 00:16:00,VALID,0,VALID,97.3286,VALID,-0.0679233,VALID,19.4754,VALID,276,VALID,0.233984,
1999-11-14, 00:17:00,VALID,0,VALID,97.396,VALID,0,VALID,19.4985,VALID,171,VALID,0.263363,
1999-11-14, 00:18:00,VALID,0,VALID,97.2561,VALID,-0.0169808,VALID,19.4952,VALID,283,VALID,0.428819,
1999-11-14, 00:19:00,VALID,0,VALID,97.2892,VALID,-0.0169808,VALID,19.5082,VALID,310,VALID,0.205128,
1999-11-14, 00:20:01,VALID,0,VALID,97.3553,VALID,-0.0339617,VALID,19.5082,VALID,206,VALID,0.351162,
1999-11-14, 00:21:00,VALID,0,VALID,97.2485,VALID,-0.0509425,VALID,19.4982,VALID,227,VALID,0.350391,
1999-11-14, 00:22:00,VALID,0,VALID,97.1887,VALID,-0.0339617,VALID,19.5151,VALID,276,VALID,0.471554,
1999-11-14, 00:23:00,VALID,0,VALID,97.0476,VALID,0,VALID,19.4945,VALID,316,VALID,0.549079,
1999-11-14, 00:24:00,VALID,0,VALID,97.2002,VALID,0,VALID,19.5114,VALID,320,VALID,0.235197,
1999-11-14, 00:25:00,VALID,0,VALID,97.1442,VALID,-0.0169808,VALID,19.502,VALID,265,VALID,0.191907,
1999-11-14, 00:26:00,VALID,0,VALID,97.4125,VALID,-0.0169808,VALID,19.5082,VALID,148,VALID,0.619792,
1999-11-14, 00:27:00,VALID,0,VALID,97.4621,VALID,-0.0169808,VALID,19.5052,VALID,42,VALID,0.453536,
1999-11-14, 00:28:00,VALID,0,VALID,97.2523,VALID,0,VALID,19.4823,VALID,102,VALID,0.7375,
1999-11-14, 00:29:00,VALID,0,VALID,96.9281,VALID,0,VALID,19.4627,VALID,287,VALID,1.02513,
1999-11-14, 00:30:00,VALID,0,VALID,97.2307,VALID,-0.0339617,VALID,19.4756,VALID,20,VALID,0.747196,
1999-11-14, 00:31:01,VALID,0,VALID,97.3579,VALID,0,VALID,19.4724,VALID,356,VALID,0.436914,
1999-11-14, 00:32:00,VALID,0,VALID,97.2638,VALID,0,VALID,19.4535,VALID,71,VALID,0.589063,
1999-11-14, 00:33:00,VALID,0,VALID,97.4011,VALID,0,VALID,19.437,VALID,88,VALID,0.485547,
1999-11-14, 00:34:00,VALID,0,VALID,97.5066,VALID,-0.0169808,VALID,19.4403,VALID,123,VALID,0.222356,
1999-11-14, 00:35:00,VALID,0,VALID,97.4418,VALID,-0.0339617,VALID,19.4177,VALID,241,VALID,0.00108507,
1999-11-14, 00:36:00,VALID,0,VALID,97.4621,VALID,-0.0169808,VALID,19.4211,VALID,190,VALID,0,
1999-11-14, 00:37:00,VALID,0,VALID,97.4672,VALID,0,VALID,19.4045,VALID,219,VALID,0,
1999-11-14, 00:38:00,VALID,0,VALID,97.4685,VALID,-0.0339617,VALID,19.3915,VALID,132,VALID,0.386613,
1999-11-14, 00:39:00,VALID,0,VALID,97.6948,VALID,-0.0339617,VALID,19.395,VALID,79,VALID,0.162861,
1999-11-14, 00:40:00,VALID,0,VALID,97.8385,VALID,-0.0509425,VALID,19.395,VALID,119,VALID,0.122044,
1999-11-14, 00:41:00,VALID,0,VALID,97.8703,VALID,0,VALID,19.3853,VALID,45,VALID,0.73088,
1999-11-14, 00:42:01,VALID,0,VALID,97.9695,VALID,-0.0339617,VALID,19.3823,VALID,192,VALID,0.731571,
1999-11-14, 00:43:00,VALID,0,VALID,98.0712,VALID,-0.0339617,VALID,19.3724,VALID,90,VALID,1.10116,
1999-11-14, 00:44:00,VALID,0,VALID,98.0547,VALID,-0.0339617,VALID,19.3624,VALID,226,VALID,0.437294,
1999-11-14, 00:45:00,VALID,0,VALID,97.9415,VALID,-0.0169808,VALID,19.3403,VALID,260,VALID,0.341747,
1999-11-14, 00:46:00,VALID,0,VALID,97.9644,VALID,-0.0169808,VALID,19.3336,VALID,253,VALID,0.376758,
1999-11-14, 00:47:00,VALID,0,VALID,97.9898,VALID,0,VALID,19.3306,VALID,49,VALID,1.06209,
1999-11-14, 00:48:00,VALID,0,VALID,98.1882,VALID,0,VALID,19.3468,VALID,96,VALID,0.870236,
1999-11-14, 00:49:00,VALID,0,VALID,98.1958,VALID,-0.0679233,VALID,19.3341,VALID,73,VALID,0.2206,
1999-11-14, 00:50:00,VALID,0,VALID,98.262,VALID,-0.0339617,VALID,19.3341,VALID,69,VALID,0.84375,
1999-11-14, 00:51:01,VALID,0,VALID,98.2594,VALID,-0.0509425,VALID,19.3279,VALID,23,VALID,0.699219,
1999-11-14, 00:52:01,VALID,0,VALID,98.2709,VALID,-0.0339617,VALID,19.3017,VALID,100,VALID,1.12871,
1999-11-14, 00:53:01,VALID,0,VALID,98.3446,VALID,-0.0339617,VALID,19.292,VALID,94,VALID,1.21054,
1999-11-14, 00:54:00,VALID,0,VALID,98.4616,VALID,-0.0339617,VALID,19.3052,VALID,99,VALID,1.33573,
1999-11-14, 00:55:00,VALID,0,VALID,98.5201,VALID,-0.0339617,VALID,19.2983,VALID,91,VALID,1.3053,
1999-11-14, 00:56:00,VALID,0,VALID,98.4947,VALID,-0.0679233,VALID,19.2891,VALID,44,VALID,0.573633,
1999-11-14, 00:57:00,VALID,0,VALID,98.4998,VALID,-0.0509425,VALID,19.2761,VALID,275,VALID,0.0865543,
1999-11-14, 00:58:00,VALID,0,VALID,98.4947,VALID,-0.0509425,VALID,19.2565,VALID,261,VALID,0.251439,
1999-11-14, 00:59:00,VALID,0,VALID,98.4909,VALID,0.0169808,VALID,19.2692,VALID,121,VALID,0.611378,
1999-11-14, 01:00:00,VALID,0,VALID,98.5989,VALID,-0.0339617,VALID,19.2726,VALID,87,VALID,0.362995,
1999-11-14, 01:01:00,VALID,0,VALID,98.6231,VALID,-0.0509425,VALID,19.2558,VALID,118,VALID,0.790625,
1999-11-14, 01:02:00,VALID,0,VALID,98.6244,VALID,-0.0169808,VALID,19.2602,VALID,235,VALID,0.474507,
1999-11-14, 01:03:00,VALID,0,VALID,98.5315,VALID,-0.0169808,VALID,19.2336,VALID,177,VALID,0.160979,
1999-11-14, 01:04:01,VALID,0,VALID,98.5277,VALID,-0.0169808,VALID,19.2336,VALID,130,VALID,0.792468,
1999-11-14, 01:05:00,VALID,0,VALID,98.4832,VALID,-0.0339617,VALID,19.2339,VALID,152,VALID,0.362459,
1999-11-14, 01:06:00,VALID,0,VALID,98.4311,VALID,0,VALID,19.2274,VALID,90,VALID,0.630757,
1999-11-14, 01:07:00,VALID,0,VALID,98.4705,VALID,-0.0509425,VALID,19.2403,VALID,91,VALID,0.980903,
1999-11-14, 01:08:00,VALID,0,VALID,98.4959,VALID,-0.0509425,VALID,19.2306,VALID,100,VALID,0.558093,
1999-11-14, 01:09:00,VALID,0,VALID,98.5188,VALID,-0.0679233,VALID,19.205,VALID,132,VALID,0.0085747,
1999-11-14, 01:10:00,VALID,0,VALID,98.5392,VALID,-0.0169808,VALID,19.2087,VALID,114,VALID,0,
1999-11-14, 01:11:00,VALID,0,VALID,98.6231,VALID,-0.0679233,VALID,19.1891,VALID,71,VALID,0.343359,
1999-11-14, 01:12:00,VALID,0,VALID,98.6702,VALID,-0.0679233,VALID,19.1757,VALID,130,VALID,0.436061,
1999-11-14, 01:13:00,VALID,0,VALID,98.7121,VALID,-0.0509425,VALID,19.1791,VALID,104,VALID,0.329181,
1999-11-14, 01:14:00,VALID,0,VALID,98.7566,VALID,-0.0679233,VALID,19.1794,VALID,100,VALID,0.157484,
1999-11-14, 01:15:01,VALID,0,VALID,98.8266,VALID,-0.0509425,VALID,19.1888,VALID,100,VALID,0.160823,
1999-11-14, 01:16:00,VALID,0,VALID,98.8215,VALID,-0.0509425,VALID,19.1826,VALID,151,VALID,0.222356,
1999-11-14, 01:17:00,VALID,0,VALID,98.8164,VALID,-0.0679233,VALID,19.1824,VALID,85,VALID,1.39248,
1999-11-14, 01:18:00,VALID,0,VALID,98.8202,VALID,-0.0679233,VALID,19.1697,VALID,93,VALID,1.22636,
1999-11-14, 01:19:00,VALID,0,VALID,98.8418,VALID,-0.0169808,VALID,19.1662,VALID,87,VALID,0.89886,
1999-11-14, 01:20:00,VALID,0,VALID,98.8469,VALID,-0.0169808,VALID,19.1761,VALID,74,VALID,0.732617,
1999-11-14, 01:21:00,VALID,0,VALID,98.8329,VALID,-0.0339617,VALID,19.1461,VALID,94,VALID,0.92866,
1999-11-14, 01:22:00,VALID,0,VALID,98.8367,VALID,-0.0169808,VALID,19.1597,VALID,98,VALID,1.04709,
1999-11-14, 01:23:00,VALID,0,VALID,98.8723,VALID,-0.0169808,VALID,19.1463,VALID,95,VALID,1.47476,
1999-11-14, 01:24:00,VALID,0,VALID,98.8723,VALID,-0.0169808,VALID,19.1334,VALID,99,VALID,1.11198,
1999-11-14, 01:25:00,VALID,0,VALID,98.8825,VALID,-0.0509425,VALID,19.1401,VALID,95,VALID,0.887891,
1999-11-14, 01:26:00,VALID,0,VALID,98.8762,VALID,-0.0169808,VALID,19.1336,VALID,170,VALID,0.415064,
1999-11-14, 01:27:00,VALID,0,VALID,98.8698,VALID,-0.0509425,VALID,19.1339,VALID,128,VALID,0.285657,
1999-11-14, 01:28:00,VALID,0,VALID,98.9067,VALID,-0.0169808,VALID,19.1533,VALID,109,VALID,0.965666,
1999-11-14, 01:29:00,VALID,0,VALID,98.9029,VALID,0,VALID,19.1761,VALID,95,VALID,1.58373,
1999-11-14, 01:30:00,VALID,0,VALID,98.9219,VALID,-0.0339617,VALID,19.1729,VALID,96,VALID,1.15264,
1999-11-14, 01:31:00,VALID,0,VALID,98.8965,VALID,0,VALID,19.1761,VALID,98,VALID,1.19901,
1999-11-14, 01:32:00,VALID,0,VALID,98.8647,VALID,0,VALID,19.1662,VALID,93,VALID,0.940039,
1999-11-14, 01:33:00,VALID,0,VALID,98.8342,VALID,0,VALID,19.1759,VALID,100,VALID,1.06377,
1999-11-14, 01:34:00,VALID,0,VALID,98.8329,VALID,-0.0169808,VALID,19.1662,VALID,94,VALID,0.934295,
1999-11-14, 01:35:00,VALID,0,VALID,98.8088,VALID,0.0169808,VALID,19.1759,VALID,88,VALID,0.947852,
1999-11-14, 01:36:01,VALID,0,VALID,98.8024,VALID,0,VALID,19.1699,VALID,93,VALID,1.58398,
1999-11-14, 01:37:00,VALID,0,VALID,98.7388,VALID,-0.0169808,VALID,19.1533,VALID,76,VALID,1.24473,
1999-11-14, 01:38:00,VALID,0,VALID,98.7083,VALID,-0.0339617,VALID,19.163,VALID,90,VALID,0.258413,
1999-11-14, 01:39:00,VALID,0,VALID,98.6117,VALID,-0.0339617,VALID,19.1468,VALID,169,VALID,0.215495,
1999-11-14, 01:40:00,VALID,0,VALID,98.6015,VALID,-0.0339617,VALID,19.1496,VALID,222,VALID,0.20332,
1999-11-14, 01:41:00,VALID,0,VALID,98.5888,VALID,-0.0169808,VALID,19.156,VALID,95,VALID,0,
1999-11-14, 01:42:00,VALID,0,VALID,98.5811,VALID,-0.0679233,VALID,19.1734,VALID,54,VALID,0.256968,
1999-11-14, 01:43:00,VALID,0,VALID,98.5519,VALID,-0.0339617,VALID,19.153,VALID,315,VALID,0.2498,
1999-11-14, 01:44:00,VALID,0,VALID,98.5405,VALID,-0.0339617,VALID,19.1503,VALID,94,VALID,0.971284,
1999-11-14, 01:45:00,VALID,0,VALID,98.5227,VALID,-0.0509425,VALID,19.1339,VALID,96,VALID,1.12007,
1999-11-14, 01:46:00,VALID,0,VALID,98.4502,VALID,-0.0509425,VALID,19.1406,VALID,85,VALID,0.789063,
1999-11-14, 01:47:00,VALID,0,VALID,98.4489,VALID,-0.0849042,VALID,19.1408,VALID,102,VALID,0.717548,
1999-11-14, 01:48:00,VALID,0,VALID,98.4451,VALID,-0.0339617,VALID,19.1306,VALID,140,VALID,0.192845,
1999-11-14, 01:49:00,VALID,0,VALID,98.4375,VALID,-0.0509425,VALID,19.1276,VALID,126,VALID,0.196715,
1999-11-14, 01:50:00,VALID,0,VALID,98.44,VALID,-0.101885,VALID,19.1177,VALID,116,VALID,0.205664,
1999-11-14, 01:51:00,VALID,0,VALID,98.426,VALID,-0.0509425,VALID,19.105,VALID,100,VALID,1.01871,
1999-11-14, 01:52:00,VALID,0,VALID,98.4362,VALID,-0.0509425,VALID,19.0821,VALID,97,VALID,1.23152,
1999-11-14, 01:53:00,VALID,0,VALID,98.4425,VALID,-0.0509425,VALID,19.0695,VALID,101,VALID,1.08614,
1999-11-14, 01:54:00,VALID,0,VALID,98.4731,VALID,-0.0679233,VALID,19.0468,VALID,92,VALID,0.752467,
1999-11-14, 01:55:00,VALID,0,VALID,98.5163,VALID,-0.0509425,VALID,19.0339,VALID,96,VALID,0.827097,
1999-11-14, 01:56:00,VALID,0,VALID,98.5799,VALID,-0.0509425,VALID,19.0339,VALID,103,VALID,0.949414,
1999-11-14, 01:57:01,VALID,0,VALID,98.6371,VALID,-0.0679233,VALID,19.024,VALID,95,VALID,1.03506,
1999-11-14, 01:58:00,VALID,0,VALID,98.6651,VALID,0.0339617,VALID,19.0168,VALID,99,VALID,1.69193,
1999-11-14, 01:59:00,VALID,0,VALID,98.6702,VALID,0.0679233,VALID,19.0066,VALID,97,VALID,1.42023,
1999-11-14, 02:00:00,VALID,0,VALID,98.6943,VALID,0,VALID,19.0001,VALID,95,VALID,1.06406,
1999-11-14, 02:01:00,VALID,0,VALID,98.6803,VALID,0.0339617,VALID,19.0004,VALID,100,VALID,1.22677,
1999-11-14, 02:02:00,VALID,0,VALID,98.6651,VALID,0.0679233,VALID,18.9872,VALID,101,VALID,1.35424,
1999-11-14, 02:03:00,VALID,0,VALID,98.6638,VALID,0.0679233,VALID,18.9969,VALID,95,VALID,1.63442,
1999-11-14, 02:04:00,VALID,0,VALID,98.6574,VALID,0.0509425,VALID,18.9937,VALID,95,VALID,1.44646,
1999-11-14, 02:05:00,VALID,0,VALID,98.632,VALID,0.0339617,VALID,18.9907,VALID,98,VALID,1.48906,
1999-11-14, 02:06:00,VALID,0,VALID,98.6282,VALID,0.0169808,VALID,18.9971,VALID,94,VALID,1.29441,
1999-11-14, 02:07:00,VALID,0,VALID,98.632,VALID,0.0169808,VALID,19.0133,VALID,99,VALID,0.731086,
1999-11-14, 02:08:00,VALID,0,VALID,98.646,VALID,-0.0679233,VALID,19.0115,VALID,99,VALID,0.67528,
1999-11-14, 02:09:01,VALID,0,VALID,98.6562,VALID,-0.0339617,VALID,19.0043,VALID,100,VALID,0.782484,
1999-11-14, 02:10:00,VALID,0,VALID,98.66,VALID,-0.0509425,VALID,19.0115,VALID,101,VALID,0.359786,
1999-11-14, 02:11:00,VALID,0,VALID,98.6689,VALID,-0.0509425,VALID,19.0115,VALID,103,VALID,0.370877,
1999-11-14, 02:12:00,VALID,0,VALID,98.7058,VALID,-0.0169808,VALID,19.0115,VALID,94,VALID,1.22055,
1999-11-14, 02:13:00,VALID,0,VALID,98.7045,VALID,0.0169808,VALID,19.0004,VALID,100,VALID,1.3569,
1999-11-14, 02:14:00,VALID,0,VALID,98.7337,VALID,0,VALID,19.0163,VALID,98,VALID,0.811867,
1999-11-14, 02:15:00,VALID,0,VALID,98.7579,VALID,0.0849042,VALID,19.026,VALID,105,VALID,0.721289,
1999-11-14, 02:16:00,VALID,0,VALID,98.7414,VALID,0.0679233,VALID,19.0362,VALID,109,VALID,0.525699,
1999-11-14, 02:17:00,VALID,0,VALID,98.7452,VALID,0.0339617,VALID,19.0424,VALID,104,VALID,0.498733,
1999-11-14, 02:18:00,VALID,0,VALID,98.7299,VALID,0.0849042,VALID,19.0322,VALID,89,VALID,0.584704,
1999-11-14, 02:19:00,VALID,0,VALID,98.7185,VALID,0.0679233,VALID,19.0354,VALID,91,VALID,0.418445,
1999-11-14, 02:20:00,VALID,0,VALID,98.7274,VALID,0.0509425,VALID,19.0519,VALID,104,VALID,0.602364,
1999-11-14, 02:21:00,VALID,0,VALID,98.7541,VALID,0.0169808,VALID,19.0521,VALID,101,VALID,0.0259046,
1999-11-14, 02:22:00,VALID,0,VALID,98.7274,VALID,0.0339617,VALID,19.0553,VALID,114,VALID,0,
1999-11-14, 02:23:00,VALID,0,VALID,98.7236,VALID,0.0679233,VALID,19.0322,VALID,100,VALID,0.333404,
1999-11-14, 02:24:00,VALID,0,VALID,98.7515,VALID,0.0339617,VALID,19.0491,VALID,99,VALID,1.0084,
1999-11-14, 02:25:00,VALID,0,VALID,98.7884,VALID,0.0509425,VALID,19.0382,VALID,100,VALID,1.18873,
1999-11-14, 02:26:00,VALID,0,VALID,98.8266,VALID,0.0339617,VALID,19.0392,VALID,98,VALID,0.984809,
1999-11-14, 02:27:00,VALID,0,VALID,98.8431,VALID,0.0679233,VALID,19.0287,VALID,98,VALID,0.622596,
1999-11-14, 02:28:00,VALID,0,VALID,98.8469,VALID,0,VALID,19.0332,VALID,103,VALID,0.15605,
1999-11-14, 02:29:00,VALID,0,VALID,98.8164,VALID,0,VALID,19.0105,VALID,105,VALID,0.00234375,
1999-11-14, 02:30:00,VALID,0,VALID,98.8253,VALID,-0.0169808,VALID,19.0175,VALID,105,VALID,0,
1999-11-14, 02:31:00,VALID,0,VALID,98.8584,VALID,0,VALID,19.0175,VALID,99,VALID,0.394431,
1999-11-14, 02:32:00,VALID,0,VALID,98.8507,VALID,-0.0339617,VALID,19.0071,VALID,93,VALID,0.371711,
1999-11-14, 02:33:00,VALID,0,VALID,98.8418,VALID,0,VALID,19.0078,VALID,100,VALID,0.0600962,
1999-11-14, 02:34:00,VALID,0,VALID,98.8723,VALID,-0.0169808,VALID,19.0175,VALID,104,VALID,0,
1999-11-14, 02:35:00,VALID,0,VALID,98.894,VALID,0,VALID,19.014,VALID,106,VALID,0.189967,
1999-11-14, 02:36:00,VALID,0,VALID,98.9207,VALID,-0.0169808,VALID,19.0147,VALID,107,VALID,0.520117,
1999-11-14, 02:37:00,VALID,0,VALID,98.9499,VALID,0,VALID,19.0076,VALID,109,VALID,0.344172,
1999-11-14, 02:38:00,VALID,0,VALID,98.9448,VALID,-0.0169808,VALID,19.0244,VALID,99,VALID,0.648237,
1999-11-14, 02:39:00,VALID,0,VALID,98.9372,VALID,0,VALID,19.018,VALID,93,VALID,0.392188,
1999-11-14, 02:40:00,VALID,0,VALID,98.88,VALID,-0.0169808,VALID,18.9852,VALID,90,VALID,0,
1999-11-14, 02:41:00,VALID,0,VALID,98.8634,VALID,-0.0339617,VALID,18.9854,VALID,100,VALID,0,
1999-11-14, 02:42:00,VALID,0,VALID,98.8825,VALID,-0.0339617,VALID,18.9819,VALID,124,VALID,0,
1999-11-14, 02:43:00,VALID,0,VALID,98.9029,VALID,-0.0169808,VALID,18.9849,VALID,124,VALID,0,
1999-11-14, 02:44:00,VALID,0,VALID,98.9397,VALID,0,VALID,19.0048,VALID,112,VALID,0,
1999-11-14, 02:45:00,VALID,0,VALID,98.9105,VALID,-0.0339617,VALID,19.005,VALID,100,VALID,0,
1999-11-14, 02:46:00,VALID,0,VALID,98.8812,VALID,-0.0169808,VALID,18.9956,VALID,77,VALID,0,
1999-11-14, 02:47:00,VALID,0,VALID,98.9105,VALID,-0.0509425,VALID,18.9889,VALID,51,VALID,0,
1999-11-14, 02:48:00,VALID,0,VALID,98.8723,VALID,-0.0169808,VALID,18.9755,VALID,69,VALID,0,
1999-11-14, 02:49:00,VALID,0,VALID,98.8634,VALID,0,VALID,18.9653,VALID,84,VALID,0,
1999-11-14, 02:50:00,VALID,0,VALID,98.8711,VALID,0,VALID,18.9722,VALID,86,VALID,0,
1999-11-14, 02:51:00,VALID,0,VALID,98.8723,VALID,-0.0339617,VALID,18.9785,VALID,93,VALID,0,
1999-11-14, 02:52:00,VALID,0,VALID,98.8355,VALID,-0.0169808,VALID,18.9787,VALID,97,VALID,0,
1999-11-14, 02:53:00,VALID,0,VALID,98.7795,VALID,-0.0339617,VALID,18.9722,VALID,95,VALID,0,
1999-11-14, 02:54:00,VALID,0,VALID,98.735,VALID,-0.0169808,VALID,18.9595,VALID,95,VALID,0.616406,
1999-11-14, 02:55:00,VALID,0,VALID,98.7312,VALID,-0.0339617,VALID,18.9662,VALID,104,VALID,0.799342,
1999-11-14, 02:56:00,VALID,0,VALID,98.7414,VALID,-0.0339617,VALID,18.9695,VALID,101,VALID,0.911585,
1999-11-14, 02:57:00,VALID,0,VALID,98.7388,VALID,0,VALID,18.9658,VALID,94,VALID,1.30798,
1999-11-14, 02:58:00,VALID,0,VALID,98.6956,VALID,0,VALID,18.9419,VALID,99,VALID,1.19141,
1999-11-14, 02:59:00,VALID,0,VALID,98.6524,VALID,0,VALID,18.9491,VALID,353,VALID,0.412418,
1999-11-14, 03:00:00,VALID,0,VALID,98.6091,VALID,-0.0169808,VALID,18.93,VALID,142,VALID,0.0941406,
1999-11-14, 03:01:00,VALID,0,VALID,98.5761,VALID,-0.0169808,VALID,18.9404,VALID,106,VALID,0.638421,
1999-11-14, 03:02:00,VALID,0,VALID,98.6066,VALID,0,VALID,18.9434,VALID,93,VALID,0.59924,
1999-11-14, 03:03:00,VALID,0,VALID,98.6727,VALID,0,VALID,18.9457,VALID,97,VALID,0.118421,
1999-11-14, 03:04:01,VALID,0,VALID,98.5405,VALID,0,VALID,18.9334,VALID,140,VALID,0.162891,
1999-11-14, 03:05:00,VALID,0,VALID,98.468,VALID,0,VALID,18.9203,VALID,150,VALID,0.00123355,
1999-11-14, 03:06:00,VALID,0,VALID,98.3383,VALID,0,VALID,18.9203,VALID,88,VALID,1.05387,
1999-11-14, 03:07:00,VALID,0,VALID,98.2696,VALID,-0.0169808,VALID,18.9138,VALID,96,VALID,0.525441,
1999-11-14, 03:08:00,VALID,0,VALID,98.2378,VALID,0,VALID,18.9265,VALID,77,VALID,0.601181,
1999-11-14, 03:09:00,VALID,0,VALID,98.22,VALID,0,VALID,18.9434,VALID,8,VALID,0.0933594,
1999-11-14, 03:10:00,VALID,0,VALID,98.1437,VALID,0,VALID,18.9431,VALID,22,VALID,0,
1999-11-14, 03:11:00,VALID,0,VALID,98.0382,VALID,-0.0509425,VALID,18.9304,VALID,110,VALID,0,
1999-11-14, 03:12:00,VALID,0,VALID,98.0458,VALID,-0.0339617,VALID,18.9367,VALID,106,VALID,1.04347,
1999-11-14, 03:13:00,VALID,0,VALID,97.9288,VALID,0,VALID,18.9242,VALID,93,VALID,1.55469,
1999-11-14, 03:14:01,VALID,0,VALID,97.8055,VALID,0,VALID,18.9145,VALID,96,VALID,1.69901,
1999-11-14, 03:15:00,VALID,0,VALID,97.7076,VALID,0,VALID,18.9115,VALID,95,VALID,1.41688,
1999-11-14, 03:16:00,VALID,0,VALID,97.6719,VALID,-0.0339617,VALID,18.9006,VALID,92,VALID,0.927484,
1999-11-14, 03:17:00,VALID,0,VALID,97.7139,VALID,-0.0169808,VALID,18.911,VALID,104,VALID,0.494474,
1999-11-14, 03:18:00,VALID,0,VALID,97.7063,VALID,-0.0169808,VALID,18.8981,VALID,114,VALID,0.497044,
1999-11-14, 03:19:00,VALID,0,VALID,97.4431,VALID,0,VALID,18.8919,VALID,95,VALID,1.46816,
1999-11-14, 03:20:00,VALID,0,VALID,97.5283,VALID,0,VALID,18.8914,VALID,100,VALID,1.11431,
1999-11-14, 03:21:00,VALID,0,VALID,97.6338,VALID,0,VALID,18.8845,VALID,99,VALID,1.25676,
1999-11-14, 03:22:00,VALID,0,VALID,97.7381,VALID,0,VALID,18.8852,VALID,94,VALID,0.745888,
1999-11-14, 03:23:00,VALID,0,VALID,97.8017,VALID,0,VALID,18.8785,VALID,98,VALID,1.133,
1999-11-14, 03:24:00,VALID,0,VALID,97.911,VALID,0,VALID,18.8752,VALID,106,VALID,0.656851,
1999-11-14, 03:25:00,VALID,0,VALID,98.0255,VALID,0,VALID,18.872,VALID,97,VALID,1.34807,
1999-11-14, 03:26:01,VALID,0,VALID,98.1221,VALID,0,VALID,18.8621,VALID,100,VALID,0.459335,
1999-11-14, 03:27:00,VALID,0,VALID,98.1094,VALID,0,VALID,18.8531,VALID,125,VALID,0.422086,
1999-11-14, 03:28:00,VALID,0,VALID,98.103,VALID,-0.0169808,VALID,18.8399,VALID,66,VALID,0.605078,
1999-11-14, 03:29:00,VALID,0,VALID,98.0433,VALID,-0.0169808,VALID,18.8367,VALID,29,VALID,0.345806,
1999-11-14, 03:30:00,VALID,0,VALID,97.9937,VALID,-0.0169808,VALID,18.8369,VALID,306,VALID,0.193576,
1999-11-14, 03:31:00,VALID,0,VALID,98.0242,VALID,-0.0509425,VALID,18.8406,VALID,355,VALID,0.240986,
1999-11-14, 03:32:00,VALID,0,VALID,97.953,VALID,-0.0849042,VALID,18.8208,VALID,146,VALID,0.325921,
1999-11-14, 03:33:00,VALID,0,VALID,97.8754,VALID,-0.0339617,VALID,18.8081,VALID,104,VALID,0.624219,
1999-11-14, 03:34:00,VALID,0,VALID,97.8703,VALID,-0.0509425,VALID,18.7914,VALID,108,VALID,0.52524,
1999-11-14, 03:35:00,VALID,0,VALID,97.7076,VALID,-0.0169808,VALID,18.7559,VALID,94,VALID,1.03185,
1999-11-14, 03:36:00,VALID,0,VALID,97.6898,VALID,-0.0849042,VALID,18.7501,VALID,115,VALID,0.800164,
1999-11-14, 03:37:01,VALID,0,VALID,97.5511,VALID,-0.0509425,VALID,18.7238,VALID,106,VALID,1.03125,
1999-11-14, 03:38:00,VALID,0,VALID,97.4342,VALID,-0.0849042,VALID,18.7303,VALID,98,VALID,1.23337,
1999-11-14, 03:39:00,VALID,0,VALID,97.4367,VALID,-0.0509425,VALID,18.74,VALID,94,VALID,1.78289,
1999-11-14, 03:40:00,VALID,0,VALID,97.4532,VALID,-0.0339617,VALID,18.7437,VALID,94,VALID,1.91523,
1999-11-14, 03:41:00,VALID,0,VALID,97.2688,VALID,-0.0509425,VALID,18.7434,VALID,95,VALID,1.71115,
1999-11-14, 03:42:00,VALID,0,VALID,97.2065,VALID,-0.0679233,VALID,18.7492,VALID,96,VALID,1.42388,
1999-11-14, 03:43:00,VALID,0,VALID,97.0476,VALID,0.0339617,VALID,18.7325,VALID,92,VALID,1.04727,
1999-11-14, 03:44:00,VALID,0,VALID,97.1722,VALID,0.0849042,VALID,18.7422,VALID,100,VALID,1.06016,
1999-11-14, 03:45:00,VALID,0,VALID,97.2116,VALID,0.101885,VALID,18.7291,VALID,103,VALID,1.05273,
1999-11-14, 03:46:00,VALID,0,VALID,97.2078,VALID,0.0339617,VALID,18.7288,VALID,93,VALID,1.20733,
1999-11-14, 03:47:00,VALID,0,VALID,97.2167,VALID,0.0509425,VALID,18.7161,VALID,88,VALID,1.08377,
1999-11-14, 03:48:01,VALID,0,VALID,97.2205,VALID,0.0509425,VALID,18.7203,VALID,97,VALID,1.19414,
1999-11-14, 03:49:00,VALID,0,VALID,97.1989,VALID,0.0169808,VALID,18.7131,VALID,95,VALID,1.84655,
1999-11-14, 03:50:00,VALID,0,VALID,97.1824,VALID,0.0509425,VALID,18.7067,VALID,98,VALID,1.37711,
1999-11-14, 03:51:00,VALID,0,VALID,97.1544,VALID,0.0339617,VALID,18.7097,VALID,101,VALID,1.16146,
1999-11-14, 03:52:00,VALID,0,VALID,97.2205,VALID,0.0509425,VALID,18.7161,VALID,100,VALID,1.35494,
1999-11-14, 03:53:00,VALID,0,VALID,97.1786,VALID,0.101885,VALID,18.7129,VALID,98,VALID,1.32052,
1999-11-14, 03:54:00,VALID,0,VALID,97.1569,VALID,0.0679233,VALID,18.6963,VALID,96,VALID,1.24279,
1999-11-14, 03:55:00,VALID,0,VALID,97.2421,VALID,0.0339617,VALID,18.7002,VALID,96,VALID,1.28185,
1999-11-14, 03:56:00,VALID,0,VALID,97.3261,VALID,0.0169808,VALID,18.697,VALID,92,VALID,1.39001,
1999-11-14, 03:57:00,VALID,0,VALID,97.3312,VALID,0.0169808,VALID,18.7002,VALID,104,VALID,1.19792,
1999-11-14, 03:58:00,VALID,0,VALID,97.2536,VALID,0,VALID,18.6949,VALID,102,VALID,1.24805,
1999-11-14, 03:59:01,VALID,0,VALID,97.2116,VALID,-0.0509425,VALID,18.6917,VALID,93,VALID,0.675781,
1999-11-14, 04:00:00,VALID,0,VALID,97.3172,VALID,-0.0339617,VALID,18.6924,VALID,96,VALID,0.336319,
1999-11-14, 04:01:00,VALID,0,VALID,97.349,VALID,-0.0849042,VALID,18.6755,VALID,103,VALID,0.139391,
1999-11-14, 04:02:00,VALID,0,VALID,97.5054,VALID,-0.0339617,VALID,18.6785,VALID,101,VALID,0.780839,
1999-11-14, 04:03:00,VALID,0,VALID,97.6058,VALID,-0.0509425,VALID,18.6725,VALID,99,VALID,0.985609,
1999-11-14, 04:04:00,VALID,0,VALID,97.7877,VALID,-0.0679233,VALID,18.6559,VALID,124,VALID,0.57793,
1999-11-14, 04:05:00,VALID,0,VALID,97.4647,VALID,-0.0339617,VALID,18.6303,VALID,91,VALID,0.742989,